Regional Weather Roundup
Issued by NWS

Home | Current Version | Previous Version | Text Only | Print | Product List | Glossary Off
Versions: 1 2 3 4 5 6 7 8 9 10 11 12 13 14 15 16 17 18 19 20 21 22 23 24 25 26 27 28 29 30 31 32 33 34 35 36 37 38 39 40 41 42 43 44 45 46 47 48 49 50

000
ASUS45 KBOU 171910
RWRCO

WEATHER ROUNDUP FOR COLORADO
NATIONAL WEATHER SERVICE DENVER/BOULDER CO
1200 PM MST FRI NOV 17 2017

NOTE: "FAIR" INDICATES FEW OR NO CLOUDS BELOW 12000 FEET WITH NO
SIGNIFICANT WEATHER AND/OR OBSTRUCTIONS TO VISIBILITY.

COZ001>005-013-030-031-172000-
...NORTHWEST COLORADO...

CITY           SKY/WX    TMP DP  RH WIND       PRES   REMARKS
CRAIG          CLOUDY    37  33  85 VRB7      29.73S
HAYDEN         LGT RAIN  37  34  89 NW20      29.72R
MEEKER         CLOUDY    59  31  34 SW24G36   29.69F
RABBIT EARS PA CLOUDY    32  30  93 W10G23    29.76F WCI  24
STEAMBOAT SPGS CLOUDY    41  35  79 W18G36    29.72R
WALDEN         CLOUDY    45  27  49 NW15G35   29.73R
$$

COZ006>008-011-172000-
...WEST CENTRAL VALLEYS...

CITY           SKY/WX    TMP DP  RH WIND       PRES   REMARKS
GRAND JUNCTION FAIR      66  32  28 SW25G36   29.73F
MONTROSE       FAIR      60  32  34 SW26G35   29.83F
EAGLE          RAIN      49  37  63 W13       29.76F
RIFLE            N/A     57  39  51 MISG      29.71F
DELTA          PTSUNNY   67  32  26 SW24G35   29.78F
NUCLA          FAIR      63  30  29 SW31G40   29.89F
$$

COZ017>023-064>068-172000-
...SOUTHWEST COLORADO...

CITY           SKY/WX    TMP DP  RH WIND       PRES   REMARKS
DURANGO        CLOUDY    50  33  52 W9        29.98F
CORTEZ         PTSUNNY   59  32  36 SW22G29   29.95F
PAGOSA SPRINGS RAIN      44  34  67 W10G18    30.01F
TELLURIDE      CLOUDY    45  29  52 W16G33    30.02F
WOLF CREEK PAS HVY SNOW  27  27 100 SW25G48   30.06F VSB<1/4 WCI  11
$$

COZ009-010-012-014-032>034-037-058>063-172000-
...CENTRAL COLORADO...

CITY           SKY/WX    TMP DP  RH WIND       PRES   REMARKS
ASPEN          LGT RAIN  43  39  86 S6        29.80F
BUENA VISTA    LGT RAIN  46  33  62 W5        29.79F
COPPER MTN     CLOUDY    34  28  80 MISG      29.88F
BERTHOUD PASS  SNOW      23  12  63 W29G51    29.84F VSB 1/4 WCI   6
COTTONWOOD PAS LGT SNOW  41  37  87 W6        29.85F
GUNNISON       PTSUNNY   52  31  44 W20G36    29.85F
KREMMLING      DRIZZLE   50  37  62 W23G33    29.74F
LEADVILLE      SNOW      33  31  92 NE6       29.83F VSB 1/2 WCI  28
SALIDA         CLOUDY    49  38  64 SW13G24   29.90S
SUNLIGHT       LGT SNOW  32  28  86 SW24G39   29.87F WCI  19
WILKERSON PASS CLOUDY    32  32 100 SW17G35   29.89F WCI  21
$$

COZ069>075-172000-
...SAN LUIS VALLEY/SANGRE DE CRISTO MOUNTAINS...

CITY           SKY/WX    TMP DP  RH WIND       PRES   REMARKS
ALAMOSA        FAIR      54  33  45 W32G40    29.91F
DEL NORTE      CLOUDY    48  31  50 SW23G30   29.91F
LA VETA PASS   CLOUDY    36  30  80 S25G47      N/A
SAGUACHE       NOT AVBL
$$

COZ035-036-038>040-172000-
...NORTHERN COLORADO FRONT RANGE...

CITY           SKY/WX    TMP DP  RH WIND       PRES   REMARKS
DENVER INTL AP PTSUNNY   66  29  24 W28G37    29.61F
DMNS CITY PARK   N/A     64  33  31 W14       29.62F
AURORA         PTSUNNY   63  33  32 SW13      29.64F
FRONT RANGE AP PTSUNNY   66  30  26 W20G28    29.62F
ERIE MUNI ARPT FAIR      62  32  31 SW15G25   29.66F
BOULDER MUN AP FAIR      59  32  36 S12G23    29.62F
CENTENNIAL     PTSUNNY   61  33  35 NW16      29.66F
BROOMFIELD     NOT AVBL
FORT COLLINS   FAIR      63  35  35 SW24G32   29.56F
LONGMONT       FAIR      65  34  31 SW20G26   29.61F
$$

COZ041-046-047-076>085-087-088-172000-
...PIKES PEAK/PALMER DIVIDE AND SOUTHERN FOOTHILLS...

CITY           SKY/WX    TMP DP  RH WIND       PRES   REMARKS
COLO. SPRINGS  FAIR      64  34  32 SW23G32   29.70F
A. F. ACADEMY  FAIR      62  29  28 SW24G36   29.70F
SCHRIEVER AFB  FAIR      62  31  31 SW28G36   29.71F
CHEYENNE MTN   FAIR      58  31  35 S17G26    29.67F
ELLICOTT         N/A    N/A N/A N/A W31G41    29.70F
FALCON         FAIR      62  29  29 SW15G33   29.73F
FORT CARSON    FAIR      62  34  34 SW25G31   29.69F
LIMON          FAIR      70  30  22 SW25G35   29.61F
MONUMENT HILL  FAIR      59  30  33 W22G30    29.72F
CANON CITY     FAIR      64  37  36 W18       29.70F
WALSENBURG     FAIR      64  34  32 SW33G47   29.76F
TRINIDAD       FAIR      68  33  27 W46G60    29.73F
$$

COZ042>045-048>051-090-091-172000-
...NORTHEAST COLORADO...

CITY           SKY/WX    TMP DP  RH WIND       PRES   REMARKS
GREELEY ARPT   FAIR      67  35  30 SW25G32   29.58F
AKRON          FAIR      60  31  33 NE8       29.60F
BURLINGTON     FAIR      73  34  23 SW9       29.58F
WRAY           NOT AVBL
YUMA           FAIR      52  32  46 N10       29.60F
STERLING       FAIR      54  32  43 E8        29.59F
HOLYOKE        FAIR      55  32  41 NE8       29.61F
FORT MORGAN    FAIR      60  29  31 NE12      29.60F
$$

COZ086-089-092>099-172000-
...SOUTHEAST COLORADO...

CITY           SKY/WX    TMP DP  RH WIND       PRES   REMARKS
PUEBLO         FAIR      71  35  26 W13       29.65F
LA JUNTA       FAIR      77  31  18 W29G44    29.61F
LAMAR          FAIR      79  31  17 W31G38    29.58F
SPRINGFIELD      N/A     77  33  20 W28G43    29.66F
$$



USA.gov is the U.S. government's official web portal to all federal, state and local government web resources and services.